Regional Weather Roundup
Issued by NWS Charleston, WV

Home | Current Version | Previous Version | Text Only | Print | Product List | Glossary On
Versions: 1 2 3 4 5 6 7 8 9 10 11 12 13 14 15 16 17 18 19 20 21 22 23 24 25 26 27 28 29 30 31 32 33 34 35 36 37 38 39 40 41 42 43 44 45 46 47 48 49 50
000
ASUS41 KRLX 041010
RWRRLX
West Virginia Regional Weather Roundup
National Weather Service Charleston WV
600 AM EDT SAT JUL 04 2015

Note: "fair" indicates few or no clouds below 12,000 feet with no
significant weather and/or obstructions to visibility.

WVZ003-041100-
Northern Panhandle of West Virginia

CITY           SKY/WX    TMP DP  RH WIND       PRES   REMARKS
WHEELING       CLOUDY    65  64  97 VRB3      29.88R FOG
$$

WVZ009-041100-
Northwest West Virginia

CITY           SKY/WX    TMP DP  RH WIND       PRES   REMARKS
PARKERSBURG    CLOUDY    65  64  97 NW3       29.92R FOG
$$

WVZ006-041100-
Western West Virginia

CITY           SKY/WX    TMP DP  RH WIND       PRES   REMARKS
HUNTINGTON     CLOUDY    66  65  96 N3        29.91R FOG
$$

WVZ015-041100-
West Central West Virginia

CITY           SKY/WX    TMP DP  RH WIND       PRES   REMARKS
CHARLESTON     LGT RAIN  69  66  90 SW8       29.90R
$$

WVZ022-031-041100-
North Central West Virginia

CITY           SKY/WX    TMP DP  RH WIND       PRES   REMARKS
CLARKSBURG     CLOUDY    67  66  97 S6        29.88R
MORGANTOWN     CLOUDY    68  64  87 S3        29.88R
$$

WVZ025-035-042-045-041100-
Southern West Virginia

CITY           SKY/WX    TMP DP  RH WIND       PRES   REMARKS
BECKLEY        CLOUDY    65  62  90 SW6       29.97S
LOGAN          CLOUDY    66  66 100 SW3       29.91R FOG
BLUEFIELD      CLOUDY    66  62  87 W8        30.00R
LEWISBURG      CLOUDY    65  63  93 CALM      29.97R FOG
$$

WVZ047-041100-
Northern Mountains of West Virginia

CITY           SKY/WX    TMP DP  RH WIND       PRES   REMARKS
ELKINS         CLOUDY    64  62  93 CALM      29.93R
$$

WVZ052-041100-
Eastern Panhandle of West Virginia

CITY           SKY/WX    TMP DP  RH WIND       PRES   REMARKS
MARTINSBURG    LGT RAIN  67  65  93 CALM      29.90S FOG
PETERSBURG     CLOUDY    65  62  91 CALM      29.90S FOG
$$



USA.gov is the U.S. government's official web portal to all federal, state and local government web resources and services.